User: anonymous   Login
Location: Unspecified
(0.0000°N, 0.0000°E)
Time: 03:29:36
(UTC+00:00)
Language:

Resurs 1-3 - Orbit

View from above orbital plane
View from above orbital plane
View from above satellite
View from above satellite

Ground track
Ground track

The orbit data is extracted from the following two-line orbital elements,

1 23342U 94074A   17173.55950953 +.00000018 +00000-0 +95345-5 0  9998
2 23342 098.0777 211.8192 0002051 091.0983 269.0463 14.79270894218570
Epoch (UTC): 22 June 2017 13:25:41
Eccentricity: 0.0002051
inclination: 98.0777°
perigee height: 630 km
apogee height: 633 km
right ascension of ascending node: 211.8192°
argument of perigee: 91.0983°
revolutions per day: 14.79270894
mean anomaly at epoch: 269.0463°
orbit number at epoch: 21857

The dashed part of the orbit path shows where the satellite is in the earth's shadow,  

DLR